Yakima, WA
on Wednesday, January 30, 2013

Wednesday
Previous Day Next Day
Daily Summary
 ActualAverageRecord
Temperature
Mean Temperature °F 34°F  
Max Temperature 61°F 42°F 68°F (1971)
Min Temperature 27°F 25°F -15°F (1950)
Degree Days
Heating Degree Days 21 32  
Month to date heating degree days 1032 1026  
Since 1 July heating degree days 3246 3689  
Cooling Degree Days 0 0  
Month to date cooling degree days 0 0  
Year to date cooling degree days 0 0  
Moisture
Dew Point 31°F   
Average Humidity 66    
Maximum Humidity 92    
Minimum Humidity 39    
Precipitation
Precipitation T in 0.03 in 0.45 in (2003)
Month to date precipitation 0.10 1.11  
Year to date precipitation 0.10 1.11  
Snow
Snow 0.00 in 0.10 in 1.10 in (2000)
Month to date snowfall 1.1 5.2  
Year to date snowfall 1.1 5.2  
Since 1 July snowfall 15.3 18.2  
Snow Depth 0.00 in   
Wind
Wind Speed 4 mph   
Max Wind Speed 22 mph   
Max Gust Speed 26 mph   
Visibility 10 miles   
Events     

Key: T is trace of precipitation, MM is missing value
Source: NWS Daily Summary
Time(PST)TemperatureDew PointHumidity Pressure Visibility Wind DirectionWind SpeedGust SpeedPrecipitationEvents Conditions
12:53 AM 33.1°F 28.0°F 82% 30.23 in 10.0 miles West 6.9 mph - N/A   Partly Cloudy
1:53 AM 30.9°F 27.0°F 85% 30.22 in 10.0 miles Calm Calm - N/A   Clear
2:53 AM 30.0°F 26.1°F 85% 30.23 in 10.0 miles Calm Calm - N/A   Clear
3:53 AM 28.9°F 26.1°F 89% 30.23 in 9.0 miles Calm Calm - N/A   Clear
4:53 AM 30.0°F 26.1°F 85% 30.23 in 10.0 miles Calm Calm - 0.00 in   Clear
5:53 AM 28.9°F 26.1°F 89% 30.23 in 10.0 miles Variable 3.5 mph - N/A   Clear
6:53 AM 28.9°F 25.0°F 85% 30.22 in 8.0 miles Calm Calm - N/A   Clear
7:53 AM 28.0°F 24.1°F 85% 30.23 in 7.0 miles Calm Calm - N/A   Clear
8:53 AM 33.1°F 28.9°F 85% 30.24 in 7.0 miles Variable 3.5 mph - N/A   Clear
9:53 AM 39.0°F 32.0°F 76% 30.24 in 9.0 miles NNE 3.5 mph - N/A   Clear
10:53 AM 45.0°F 34.0°F 65% 30.24 in 10.0 miles Calm Calm - N/A   Clear
11:53 AM 53.1°F 36.0°F 52% 30.23 in 10.0 miles Calm Calm - N/A   Scattered Clouds
12:53 PM 60.1°F 36.0°F 41% 30.20 in 10.0 miles West 20.7 mph 26.5 mph N/A   Clear
1:53 PM 60.1°F 36.0°F 41% 30.22 in 10.0 miles WNW 17.3 mph 21.9 mph N/A   Partly Cloudy
2:53 PM 61.0°F 36.0°F 39% 30.22 in 10.0 miles WNW 8.1 mph - N/A   Clear
3:53 PM 59.0°F 35.1°F 41% 30.24 in 10.0 miles Calm Calm - N/A   Clear
4:53 PM 53.1°F 35.1°F 50% 30.27 in 10.0 miles WSW 3.5 mph - N/A   Partly Cloudy
5:53 PM 41.0°F 30.9°F 67% 30.29 in 10.0 miles West 4.6 mph - N/A   Clear
6:53 PM 37.9°F 30.0°F 73% 30.30 in 10.0 miles West 5.8 mph - N/A   Clear
7:53 PM 39.9°F 32.0°F 73% 30.31 in 10.0 miles Calm Calm - N/A   Clear
8:53 PM 39.0°F 30.9°F 73% 30.31 in 10.0 miles West 3.5 mph - N/A   Partly Cloudy
9:53 PM 42.1°F 34.0°F 73% 30.29 in 10.0 miles WNW 10.4 mph - N/A   Overcast
10:53 PM 48.0°F 36.0°F 63% 30.29 in 10.0 miles NNW 10.4 mph - N/A   Overcast
11:53 PM 46.0°F 35.1°F 66% 30.29 in 10.0 miles Calm Calm - N/A   Mostly Cloudy
Moon Phase
Jan. 30 Feb. 03 Feb. 10 Feb. 17 Feb. 25
Sunrise:07:27 AM (PST) Moon Rise:09:26 PM (PST)
Sunset:05:03 PM (PST) Moon Set:08:41 AM (PST)

Copyright © 2014 The Weather Underground, Inc.